World > North America > United States > Florida

San Mateo, Florida Regional Weather

Lat: 29.61N, Lon: 81.58W
Wx Zone: FLZ037Web Search
San Mateo Weather Warning NWS WEATHER ALERT FOR THE SAN MATEO, FL AREA - WIND ADVISORY Issued: 310 AM EDT Sun Sep 20 2020 San Mateo Weather Warning  

Helpful Tip: Abbreviated, 7 Day, 14 Day Forecasts. There is a weather forecast for every taste.

Feedback
San Mateo Weather Map
UTC Time: 9/20/2020, 11:18
Your Time:

San Mateo, FL Regional Weather

Expires:202009201100;;092333
ASUS42 KTBW 201018
RWRFL 
FLORIDA REGIONAL WEATHER ROUNDUP
NATIONAL WEATHER SERVICE TAMPA BAY RUSKIN FL
600 AM EDT SUN SEP 20 2020

NOTE: "FAIR" INDICATES FEW OR NO CLOUDS BELOW 12,000 FEET WITH NO
SIGNIFICANT WEATHER AND/OR OBSTRUCTIONS TO VISIBILITY.


FLZ011-016>038-118-127-128-134-139-239-201100-
NORTH FLORIDA
  
CITY           SKY/WX    TMP DP  RH WIND       PRES   REMARKS
MARIANNA       LGT RAIN  64  58  80 NE14      30.08R                  
TALLAHASSEE    CLOUDY    67  58  72 E10       30.06R                  
LIVE OAK       CLOUDY    66  61  82 N9G15     30.05S                  
CROSS CITY     CLOUDY   N/A N/A N/A NE15G23   30.01S                  
LAKE CITY      CLOUDY    64  59  82 NE8G21    30.04S                  
GAINESVILLE    CLOUDY    67  66  97 N15G21    30.02F                  
MAYPORT NAS    LGT RAIN  74  72  93 NE30G38   30.00S                  
JACKSONVILLE   DRIZZLE   65  64  97 N12       30.03S                  
JAX NAS        DRIZZLE   69  68  96 N20       30.01S FOG              
JAX CECIL      CLOUDY    64  63  94 N10       30.02S                  
FERNANDINA BEA CLOUDY    72  69  89 NE21G30   30.03S                  
ST AUGUSTINE   CLOUDY    78  73  84 NE22G32   29.99R                  
PALM COAST     CLOUDY    79  75  89 NE17G23   29.95S FOG              

STATION/POSITION SKY/WX   TEMP    WIND        PRES    WAVE   SWELL
                          AIR SEA DIR/SP/G            HT/PER HT/PER
                          (F)     (DEG/KT/KT) (MB)    (FT/S) (FT/S)
SHELL POINT      NOT AVBL
KEATON BEACH               67      30/ 12/ 17 1016.3F
CEDAR KEY                  71      50/ 13/ 16 1014.8S
FERNANDINA                 76 78   10/ 13/ 21 1016.8
30.7N   81.3W              74 81                N/A     9/ 6   3/11
MAYPORT                    75 80   30/ 25/ 30 1016.4F
31.4N   80.9W              72 82   30/ 27/ 31 1017.2S   8/ 6   3/16
ST AUGUSTINE               79 82   20/ 30/ 34 1014.5F

$$

SKY/WX - Weather  TMP - Temperature  DP - Dew Point  RH - Relative Humidity
WIND - Wind Direction/Speed PRES - Barometric Pressure VSB - Visibility
WCI - Wind Chill Index E13G22 Wind - East Wind 13 mph/Gusts of 22 mph